Theta_e
310 309 310 310 309 310 310 309 311 310 310 312 311 311 311 312 310 309 309 308 309 311 311 312 313 315 315 315 314 315 317 318 332 347 348 346 344 348 346 348 348 348 347 346
309 310 310 311 311 312 312 313 312 310 311 313 312 312 312 311 311 311 311 315 317 315 316 313 314 313 314 316 317 316 317 319 323 330 335 341 339 342 340 338 342 342 346 346
311 312 311 313 312 313 312 312 312 312 312 312 311 311 313 311 313 315 317 318 318 318 318 317 314 311 313 314 316 317 317 318 320 322 337 341 338 335 334 334 332 335 342 344
312 311 312 312 313 312 313 312 313 313 313 314 312 313 311 313 315 317 319 318 318 318 318 317 317 316 313 315 317 317 318 318 319 323 337 333 331 330 324 330 335 340 342 341
313 313 312 313 314 314 312 314 313 313 312 311 310 314 312 315 320 320 320 320 319 318 317 317 317 316 317 317 317 317 318 319 322 323 328 331 325 324 328 329 332 339 342 343
311 312 313 313 315 314 313 312 311 308 308 311 312 316 314 315 322 321 321 320 319 318 317 317 316 316 317 319 323 323 322 325 325 328 330 327 326 327 328 331 335 334 337 343
313 314 314 314 313 312 311 309 311 312 311 312 312 315 314 317 322 323 322 321 319 317 317 316 315 314 315 317 321 323 324 325 324 324 323 324 327 327 330 335 336 333 333 338
312 314 315 313 313 314 313 310 311 317 315 314 313 316 313 320 321 321 322 320 319 320 318 317 314 313 314 316 319 321 322 323 329 331 330 330 329 331 336 336 334 333 332 336
313 314 314 313 313 313 313 313 310 313 312 312 313 314 316 320 319 321 321 322 322 320 320 319 317 313 314 315 318 317 318 320 323 324 324 324 326 330 335 336 335 333 331 335
314 314 314 314 313 313 312 310 312 308 312 320 316 315 316 321 321 319 320 319 319 321 320 318 317 317 315 315 317 317 317 318 319 323 324 325 326 325 332 337 333 333 333 335
313 312 315 314 314 314 313 313 311 311 313 314 319 315 315 320 320 318 317 317 317 319 320 317 317 318 315 315 316 316 317 318 319 323 326 325 326 327 332 334 334 332 334 334
314 311 314 316 313 312 310 312 312 313 313 316 317 316 311 311 319 317 315 315 314 315 319 318 318 316 316 313 314 314 314 317 320 321 327 328 329 328 329 333 333 333 332 330
316 311 316 313 310 311 313 314 313 311 309 316 319 315 310 309 309 309 312 313 313 314 314 314 313 312 311 313 313 313 313 314 317 319 322 328 331 332 333 331 329 328 327 324
316 309 314 315 313 311 315 315 313 313 316 316 316 315 313 311 314 314 311 312 311 310 310 310 310 309 311 312 313 313 312 312 314 315 320 325 325 326 326 326 327 325 323 320
309 310 311 312 313 314 315 316 316 315 315 318 316 315 314 315 315 314 312 312 310 309 309 309 308 308 310 311 312 312 312 312 313 313 318 324 323 323 324 324 323 322 320 316
308 309 312 313 313 314 316 314 314 317 318 317 316 315 316 316 314 312 310 309 310 310 309 308 308 308 308 311 312 311 310 311 312 314 319 323 322 322 320 319 317 315 313 311
305 304 308 314 315 316 316 315 315 315 317 318 320 316 314 313 312 310 310 310 309 309 308 307 308 307 308 309 310 309 308 309 312 315 321 322 319 318 316 314 313 311 309 308
302 305 313 318 315 311 310 314 317 317 317 316 316 314 313 311 309 308 307 308 308 307 306 306 305 305 306 307 309 308 308 308 312 314 320 317 315 314 312 311 310 308 307 306
307 312 315 314 312 313 313 317 316 316 315 314 313 313 312 312 310 310 307 306 305 305 306 305 305 305 305 305 306 308 308 308 308 313 315 313 313 311 309 307 306 305 304 303
310 309 306 311 317 314 311 316 312 314 316 313 313 313 313 310 312 310 307 307 307 306 306 306 306 306 306 305 305 307 307 308 307 315 312 311 309 308 306 304 303 302 302 301
307 307 311 313 316 312 314 312 312 308 310 313 313 312 311 310 308 307 307 306 305 305 306 305 305 305 305 305 305 306 306 307 311 312 310 309 307 305 303 301 300 300 299 298
307 306 307 310 310 312 310 309 314 314 313 312 311 309 308 306 306 306 305 306 305 305 305 305 305 306 306 305 305 305 306 307 310 309 307 305 303 302 301 300 299 299 298 297
306 310 310 309 308 307 308 309 312 310 312 309 307 307 305 306 305 306 305 305 305 306 306 305 306 306 306 306 305 305 305 307 308 305 302 301 301 300 300 300 299 299 299 299
306 306 309 308 307 307 308 310 310 309 306 306 305 305 305 305 305 305 305 306 305 304 304 304 305 306 306 306 305 305 305 308 303 300 299 299 299 299 299 299 300 300 300 300
307 306 305 308 307 309 309 309 307 306 305 304 304 304 305 305 305 304 305 304 303 303 304 306 306 306 307 305 305 306 307 303 300 299 299 298 298 299 299 299 299 299 299 296
302 304 309 312 308 310 308 306 305 304 305 305 305 305 304 304 304 304 302 302 302 305 306 308 308 307 306 306 307 306 302 301 299 299 299 298 299 299 298 298 297 297 296 297
Wind_Speed
4 4 1 5 6 6 3 5 7 5 6 4 9 10 12 14 9 11 10 10 12 14 17 23 30 33 34 36 33 27 25 25 29 26 22 20 20 20 21 24 29 27 26 24
6 1 6 5 5 5 5 4 9 6 5 4 11 14 14 8 9 5 6 9 11 13 16 13 25 28 33 31 38 34 28 28 28 28 26 22 20 16 15 15 18 21 28 31
4 6 5 3 6 7 4 6 4 7 5 5 7 8 4 8 3 8 9 8 8 9 11 16 16 20 22 25 32 34 31 30 29 28 23 16 9 7 10 16 19 19 18 23
4 4 4 6 4 3 4 3 4 7 5 10 4 7 5 5 7 8 12 12 11 12 13 14 18 23 26 25 24 29 31 32 30 28 25 21 15 12 15 11 14 17 16 14
8 3 6 4 2 2 6 4 7 8 5 2 6 1 6 6 6 7 9 13 13 13 13 15 19 28 36 14 11 17 21 27 27 24 25 20 15 15 11 7 12 13 15 16
7 3 2 3 0 2 4 5 3 4 2 2 4 3 4 4 3 4 7 12 13 15 17 19 27 33 28 18 11 5 6 11 14 15 16 15 14 9 5 6 9 13 14 13
5 4 2 3 3 5 9 7 5 6 4 5 2 5 9 3 2 1 4 8 11 11 15 17 19 17 26 27 29 23 14 5 5 9 11 11 10 9 10 10 8 14 17 13
1 7 2 1 3 3 3 5 4 5 3 13 7 6 5 4 4 3 5 6 7 15 15 16 13 15 22 26 32 33 26 23 17 7 4 9 10 10 11 9 8 13 17 17
3 5 4 7 3 5 3 3 4 3 4 3 3 6 4 2 3 3 6 6 8 4 11 18 17 19 20 26 26 28 30 33 24 16 9 7 5 4 12 10 10 11 16 16
4 7 6 1 3 1 6 4 2 3 4 4 5 8 10 3 3 5 6 7 8 4 6 16 19 19 20 15 18 24 26 26 26 25 15 13 8 9 6 8 10 11 13 11
2 4 4 2 5 6 4 2 3 2 3 4 6 8 5 7 5 6 8 6 8 7 6 1 18 18 25 8 12 20 22 25 26 26 17 10 8 6 1 6 9 8 7 8
2 2 7 12 10 8 6 7 6 4 5 4 5 14 8 10 6 6 12 12 10 8 8 6 13 22 12 6 10 17 20 23 21 22 20 13 6 2 7 10 5 3 5 8
2 2 8 10 5 4 1 4 4 2 1 11 8 10 4 6 13 10 7 11 10 7 6 6 5 6 9 8 8 12 17 18 21 21 22 16 11 6 3 3 5 5 7 11
2 3 8 10 14 5 8 10 7 6 4 15 13 24 20 9 9 8 8 8 8 6 6 7 8 7 7 5 9 12 14 17 20 22 22 13 10 4 3 3 7 12 15 24
3 5 6 13 18 15 17 19 14 13 17 10 21 16 18 13 13 6 6 6 7 11 14 9 6 6 13 13 9 9 12 16 18 21 20 11 5 2 4 6 11 17 23 27
2 6 4 9 15 15 14 20 20 17 17 14 18 20 7 4 3 5 7 7 9 12 11 14 13 6 9 15 8 6 10 12 13 15 13 5 2 7 12 16 18 23 27 27
3 2 2 5 6 10 10 10 8 4 5 5 6 7 3 4 5 6 9 11 14 11 10 8 6 7 14 11 8 6 9 10 9 11 4 6 8 14 18 22 25 25 24 29
4 2 1 4 4 3 6 4 2 5 6 5 11 4 4 5 7 10 8 14 13 11 9 5 6 10 14 17 12 8 9 9 8 11 2 11 13 17 21 25 27 26 27 28
5 3 2 3 3 9 6 4 5 6 11 11 7 1 5 7 6 15 10 7 7 8 8 13 19 21 20 20 24 17 9 13 11 9 5 14 17 21 21 23 26 27 29 30
3 2 4 2 5 4 4 3 10 5 7 4 5 9 7 7 13 15 15 16 13 20 24 23 24 23 20 18 20 19 10 11 11 6 13 18 21 22 23 26 27 28 32 34
5 4 4 6 5 7 3 10 5 4 4 13 11 11 12 12 14 23 16 17 23 22 24 26 25 23 22 18 19 19 13 11 1 13 19 23 24 26 28 30 31 35 36 37
3 1 2 3 3 7 3 14 3 8 15 11 10 13 17 17 18 16 19 17 17 18 24 27 24 24 23 20 18 17 15 5 8 21 23 24 26 27 29 34 31 30 35 32
3 4 3 6 6 7 17 11 10 8 7 11 15 14 13 16 19 19 18 18 18 16 20 25 22 20 21 20 21 19 19 8 20 25 26 28 31 30 30 31 32 30 27 26
4 2 4 4 6 8 10 12 4 4 14 16 8 12 16 19 17 18 17 15 14 19 20 23 21 19 17 20 20 22 16 24 27 28 29 31 34 32 32 30 28 27 22 20
7 3 5 7 12 11 13 7 11 16 14 9 15 18 17 16 17 18 15 15 16 18 25 23 21 19 18 19 19 17 29 32 31 30 31 31 32 35 35 32 28 25 25 11
4 6 3 7 14 14 9 15 17 12 12 14 18 17 15 13 17 13 14 15 16 13 11 4 21 22 22 21 20 30 35 38 36 30 29 30 33 33 33 35 29 18 13 21
Wind_Direction
0 58 204 246 202 216 234 227 254 240 251 311 269 290 289 289 285 283 294 304 301 295 292 290 282 280 273 260 245 229 220 218 222 222 218 220 228 233 240 244 249 248 255 246
15 284 223 259 251 239 235 283 291 293 271 291 286 294 284 285 269 305 319 320 330 333 325 305 321 279 263 257 245 236 220 218 215 219 225 224 225 234 250 264 261 262 257 254
154 244 292 276 329 322 301 256 270 272 298 242 297 287 268 305 317 18 356 321 320 337 322 328 327 307 278 264 250 240 227 220 216 220 220 211 202 235 253 254 269 277 273 252
232 262 262 321 284 255 302 253 274 288 320 303 114 293 300 312 332 21 348 342 332 341 334 338 351 347 326 267 253 245 234 223 220 215 212 218 209 224 254 281 305 298 279 260
247 249 287 269 205 266 243 304 256 263 240 15 320 351 268 352 334 350 339 341 354 355 6 354 360 356 342 299 265 259 247 224 212 210 217 216 229 243 262 322 324 309 295 265
246 240 206 195 196 20 301 329 307 36 61 35 231 84 270 299 279 318 334 342 345 356 5 4 359 1 350 31 52 61 197 207 214 205 214 231 246 268 290 302 319 319 316 283
327 291 86 70 26 346 22 34 332 343 354 237 234 311 247 292 199 62 311 321 323 341 2 1 5 356 349 21 38 53 58 47 285 251 248 252 271 280 263 272 310 313 315 295
58 329 342 66 148 252 295 135 149 290 277 292 288 245 253 216 198 213 292 307 337 356 354 350 344 354 356 9 36 44 47 41 44 42 323 291 265 240 252 258 273 289 301 293
301 261 269 282 190 121 292 241 190 240 227 325 250 297 305 50 354 308 297 313 307 13 333 328 335 336 3 11 28 38 43 48 50 40 45 53 31 296 261 254 245 280 290 287
270 291 243 283 61 205 186 170 6 4 297 284 292 288 264 199 263 283 313 310 302 306 10 323 313 316 324 14 30 39 41 41 39 38 39 31 30 358 290 245 256 272 283 286
269 165 260 48 203 247 282 283 102 168 171 211 306 270 227 235 235 287 297 290 281 248 201 128 294 292 285 337 45 55 47 40 31 25 24 25 24 22 255 257 254 264 264 258
299 219 271 270 255 255 168 202 158 142 256 220 253 265 258 269 244 279 308 306 299 247 219 210 261 293 284 28 39 58 49 45 42 27 18 16 21 342 226 225 240 191 205 195
331 308 311 308 354 357 179 200 173 124 57 251 263 273 259 322 330 319 328 313 314 337 311 295 296 308 8 39 40 49 46 41 37 30 19 9 10 347 347 113 136 171 159 147
296 200 207 258 271 245 266 243 225 199 224 277 245 277 284 295 313 317 324 342 331 331 345 349 347 344 359 1 8 24 31 31 31 25 13 8 2 27 43 100 160 151 141 128
106 241 225 261 268 270 261 267 249 221 237 233 277 271 280 280 264 257 279 287 318 338 334 327 324 322 324 322 341 6 14 14 16 17 10 19 16 81 100 111 127 134 133 131
339 277 291 279 268 265 271 270 271 256 251 253 261 267 274 297 205 262 267 303 313 306 307 312 313 319 298 280 299 343 8 11 11 10 5 22 101 124 120 122 121 121 119 117
216 185 12 268 350 318 290 264 260 235 217 217 242 259 216 263 282 284 291 303 295 287 288 281 317 337 342 341 346 351 5 360 358 0 7 143 150 129 122 123 120 115 110 115
138 155 227 284 311 258 239 352 28 336 276 322 279 269 240 259 271 273 272 278 281 284 293 288 284 293 309 313 310 325 337 355 347 356 146 147 143 141 130 127 120 114 115 110
169 150 284 271 264 279 301 40 5 3 300 266 262 269 274 293 290 292 274 260 265 283 271 273 277 278 285 281 280 283 291 324 328 339 158 154 157 142 128 117 117 117 113 108
121 131 156 218 261 270 227 256 319 221 286 61 4 313 299 306 301 300 311 293 293 290 286 283 278 277 273 268 274 272 261 287 315 158 155 152 143 134 122 120 113 110 109 108
302 314 250 259 255 278 180 336 328 74 276 311 296 296 300 291 284 298 301 292 289 285 282 278 272 264 258 251 243 243 229 252 214 162 146 138 136 129 123 113 112 115 110 110
253 293 271 326 274 279 43 352 11 307 295 278 299 293 296 293 297 295 292 288 284 280 274 269 263 258 252 239 224 224 231 253 182 149 135 125 120 114 114 111 108 107 110 109
288 197 246 213 238 290 318 286 276 275 281 301 294 298 291 293 296 294 293 288 284 281 282 275 261 251 239 225 213 216 229 197 153 131 118 114 112 107 107 110 113 114 118 119
281 256 248 316 264 270 287 299 287 314 299 295 294 296 298 293 295 292 291 290 299 290 279 268 248 232 224 204 202 214 205 166 135 120 115 113 108 101 102 104 110 114 117 122
262 317 249 253 280 308 297 343 305 307 301 293 298 301 294 292 294 299 296 304 297 291 284 262 222 206 184 175 180 181 148 136 122 119 115 111 108 108 105 105 114 119 123 109
194 214 242 285 302 294 298 306 303 297 295 300 303 302 302 300 301 303 307 300 298 298 316 335 154 146 145 148 151 135 135 131 123 118 117 117 115 114 114 113 108 105 111 131